RH
45 43 48 51 53 55 54 59 56 44 36 35 33 28 20 18 17 17 17 17 18 20 22 23 24 24 24 21 20 21 22 23 23 22 19 19 20 20 21 22 23 24 25 26
50 45 49 56 60 62 58 49 39 39 37 32 28 22 16 15 16 16 17 18 19 21 22 25 25 26 24 21 21 22 23 24 23 23 22 22 22 22 23 24 26 27 28 27
42 48 53 53 50 43 38 36 34 35 31 24 23 19 15 15 16 16 17 18 19 21 23 25 26 26 24 23 22 23 23 24 26 27 27 27 26 25 26 28 29 30 28 26
39 40 39 38 36 35 34 36 34 31 25 23 21 21 17 15 18 18 20 21 20 22 24 26 27 27 24 24 24 24 26 27 28 29 30 30 29 28 29 31 31 28 25 23
37 37 36 36 37 37 36 32 28 25 24 23 22 23 17 20 22 20 21 22 23 24 27 29 29 27 26 25 25 26 28 29 30 32 32 31 31 32 33 31 28 25 24 23
38 40 41 40 38 34 32 27 26 28 26 25 23 22 19 23 23 23 24 24 25 26 28 27 27 27 26 27 29 29 31 32 32 33 33 34 35 34 30 27 24 24 23 23
43 44 43 39 35 30 26 27 27 22 25 23 27 27 24 24 23 25 26 26 24 24 26 27 29 30 29 30 30 32 32 33 34 36 37 36 32 28 26 25 24 24 23 23
36 34 34 31 25 23 23 25 26 22 24 28 28 28 26 24 24 25 25 24 25 27 28 29 30 31 32 33 32 33 35 38 40 38 32 29 28 26 25 26 26 25 25 25
27 24 23 22 23 25 28 29 26 28 28 27 26 23 24 23 22 23 25 26 28 28 28 29 29 30 31 33 35 38 40 39 32 29 29 27 26 27 27 27 26 26 26 23
22 22 22 24 25 26 27 27 28 30 28 23 24 25 25 24 24 26 27 28 28 29 30 30 32 33 36 38 39 37 32 28 27 27 27 28 29 27 26 27 27 25 24 23
24 24 22 24 25 28 29 30 30 29 29 27 27 23 25 26 27 28 29 29 30 32 32 34 37 38 38 35 28 24 23 24 25 27 29 29 27 28 30 28 26 25 22 20
23 23 22 21 22 22 24 26 27 29 28 32 32 29 27 29 30 31 32 33 34 37 39 39 35 29 24 22 21 21 23 26 27 28 27 30 32 31 28 26 24 22 21 22
22 23 23 21 24 25 24 26 30 32 33 34 33 30 32 33 33 35 37 39 39 36 31 27 24 23 22 22 22 22 24 27 30 32 32 32 30 28 26 23 23 23 22 21
26 26 24 26 27 29 27 26 30 31 36 35 36 34 34 37 38 38 33 31 30 26 25 25 26 29 30 31 31 31 32 32 30 31 31 31 30 26 23 24 24 24 22 22
25 24 27 27 28 30 31 32 34 35 34 34 35 36 36 32 29 27 26 26 27 30 32 34 34 34 33 32 30 27 27 29 31 32 32 32 25 25 26 25 25 23 23 26
27 30 34 35 39 40 41 41 41 39 36 33 31 28 23 22 22 24 28 33 35 35 35 35 34 32 29 25 26 28 30 32 33 34 34 27 28 28 27 26 25 24 26 32
36 40 42 42 43 41 37 31 30 27 25 24 22 20 21 25 30 33 35 35 36 38 38 35 30 26 25 25 28 31 33 35 36 36 30 31 31 29 28 27 27 29 35 40
41 44 46 46 37 35 21 21 20 20 18 19 21 25 28 30 33 35 35 37 41 41 36 28 25 24 27 29 30 33 36 39 38 33 34 35 34 32 31 30 31 38 43 48
41 39 42 40 35 23 14 17 18 20 19 23 25 28 30 32 33 36 41 46 45 36 28 25 25 27 29 32 34 37 41 39 36 37 38 38 38 36 34 34 37 44 49 55
34 32 32 36 29 27 12 16 18 21 26 24 27 31 35 39 42 45 45 40 33 28 26 26 27 30 33 36 39 42 38 36 38 40 40 42 43 41 39 42 48 50 58 65
32 31 31 36 33 24 17 19 21 25 23 27 30 34 37 40 41 42 39 34 30 27 27 28 30 34 37 39 40 36 36 39 41 42 45 46 45 45 46 48 50 56 67 86
24 29 30 35 35 26 19 22 24 24 27 30 33 37 41 44 43 40 36 32 29 28 28 30 32 36 38 37 35 37 41 45 46 50 52 51 53 50 48 48 54 69 91 96
26 20 25 25 23 18 20 21 23 26 30 33 37 41 45 43 40 37 33 31 30 30 30 32 33 35 37 36 37 38 44 50 55 56 56 56 49 47 48 54 68 93 96 95
21 22 24 24 20 20 22 24 27 31 35 40 43 44 40 39 38 34 32 31 30 30 31 33 36 37 38 40 45 45 49 56 63 62 58 48 46 46 54 70 97 97 95 94
21 23 24 24 22 24 24 27 32 35 39 43 42 39 39 38 36 34 33 33 32 33 35 38 39 41 44 48 50 55 66 72 70 64 51 43 46 52 68 95 97 96 96 96
21 21 22 23 21 23 26 31 35 40 41 38 37 38 37 37 37 35 34 34 35 37 38 40 44 47 51 53 57 73 82 80 70 57 44 45 51 65 93 97 96 96 97 97